Starlink 32617

operational
NORAD ID: 62076 Int'l Des: 2024-217 Owner: SPXS Country: US Constellation: starlink
LEOCIRCULAR

关于 Starlink 32617

正在加载描述...

实时位置

正在加载3D地球...

即将过境

高度历史

Altitude vs Time

uPlot chart will show altitude changes over time

两行轨道根数

1 62076U 24217V 25306.46158352 .00039471 00000-0 13368-2 0 9994
2 62076 53.1585 51.9712 0001221 103.0788 257.0350 15.30221772 54122
Epoch: Nov 2, 2025 • Age: 9 hours

当前状态

高度 493.7 km
速度 7.62 km/s
星下点 -51.37°S, 3.18°W
发射日期 Nov 24, 2024
运行时间 0.9 years
类型 internet

技术详情

分类 Payload
质量 730.00 kg
干质量 700.00 kg
总质量 730.00 kg
长度 0.30 m
直径 4.10 m
跨度 29.00 m
形状 Box + pan
制造商 SPXS
平台类型 Starlink V2M
阶段状态 In Orbit
所有者/国家 SPXS/US

大型星座

Loading constellations...